Regional Weather Roundup
Issued by NWS Goodland, KS

Home | Current Version | Previous Version | Text Only | Print | Product List | Glossary Off
Versions: 1 2 3 4 5 6 7 8 9 10 11 12 13 14 15 16 17 18 19 20 21 22 23 24 25 26 27 28 29 30 31 32 33 34 35 36 37 38 39 40 41 42 43 44 45 46 47 48 49 50

000
ASUS43 KGLD 111159
RWRGLD

GOODLAND FORECAST AREA HOURLY WEATHER ROUNDUP
NATIONAL WEATHER SERVICE GOODLAND KS
600 AM MDT FRI JUL 11 2014

...OFFICIAL OBSERVATIONS...

CITY           SKY/WX    TMP DP  RH WIND       PRES   REMARKS
GOODLAND KS    PTCLDY    68  54  60 S8        29.99R
HILL CITY KS   MOCLDY    69  65  86 CALM      29.94R
IMPERIAL NEB   CLOUDY    70  67  90 NE6       30.00R FOG
MCCOOK NEB     PTCLDY    69  68  96 E9        29.96R FOG
AKRON CO       CLOUDY    64  62  93 NE8       30.06R
BURLINGTON CO  PTCLDY    64  54  69 SW5       30.01R
LIMON CO       PTCLDY    61  57  87 NW12      30.11S
$$

...UNOFFICIAL OBSERVATIONS...

CITY           SKY/WX    TMP DP  RH WIND       PRES   REMARKS
COLBY KS       CLEAR     66  57  72 NW5       29.98R
GOVE KS          N/A     71  32  23 CALM        N/A
NORTON KS      MOCLDY    68  64  88 E5        29.95R FOG
SHARON SPRINGS   N/A     69  52  54 S9          N/A
YUMA CO          N/A     66  63  89 NE12        N/A
$$


USA.gov is the U.S. government's official web portal to all federal, state and local government web resources and services.